Kelso-Longview, WA
on Saturday, February 16, 2013

Saturday
Previous Day Next Day
Daily Summary
 ActualAverage (KSPB)Record (KSPB)
Temperature
Mean Temperature °F °F  
Max Temperature 51°F °F 55°F (2000)
Min Temperature 37°F °F 23°F (2006)
Degree Days
Heating Degree Days 21    
Month to date heating degree days  
Since 1 July heating degree days  
Cooling Degree Days 0    
Month to date cooling degree days  
Year to date cooling degree days  
Moisture
Dew Point 38°F   
Average Humidity 80    
Maximum Humidity 93    
Minimum Humidity 58    
Precipitation
Precipitation 0.01 in in 0.70 in (2004)
Month to date precipitation  
Year to date precipitation  
Wind
Wind Speed 3 mph   
Max Wind Speed 14 mph   
Max Gust Speed 23 mph   
Visibility 9 miles   
Events     

Key: T is trace of precipitation, MM is missing value
Source: NWS Daily Summary
Time(PST)TemperatureDew PointHumidity Pressure Visibility Wind DirectionWind SpeedGust SpeedPrecipitationEvents Conditions
12:15 AM 44.6°F 39.2°F 81% 30.21 in 10.0 miles SE 3.5 mph - N/A   Clear
12:35 AM 44.6°F 39.2°F 81% 30.22 in 10.0 miles SSE 3.5 mph - N/A   Clear
12:55 AM 44.6°F 39.2°F 81% 30.23 in 10.0 miles SSE 3.5 mph - N/A   Clear
1:15 AM 41.0°F 37.4°F 87% 30.23 in 10.0 miles WSW 3.5 mph - N/A   Clear
1:35 AM 42.8°F 37.4°F 81% 30.23 in 10.0 miles Calm Calm - N/A   Clear
1:55 AM 41.0°F 37.4°F 87% 30.23 in 10.0 miles Calm Calm - N/A   Clear
2:15 AM 37.4°F 35.6°F 93% 30.23 in 8.0 miles Calm Calm - N/A   Clear
2:35 AM 39.2°F 35.6°F 87% 30.24 in 10.0 miles Calm Calm - N/A   Mostly Cloudy
2:55 AM 41.0°F 37.4°F 87% 30.23 in 10.0 miles Calm Calm - N/A   Overcast
3:15 AM 39.2°F 37.4°F 93% 30.23 in 8.0 miles Calm Calm - N/A   Overcast
3:35 AM 41.0°F 37.4°F 87% 30.23 in 10.0 miles Calm Calm - N/A   Overcast
3:55 AM 41.0°F 39.2°F 93% 30.24 in 8.0 miles Calm Calm - N/A   Overcast
4:15 AM 42.8°F 39.2°F 87% 30.23 in 10.0 miles Calm Calm - N/A   Overcast
4:35 AM 42.8°F 39.2°F 87% 30.24 in 8.0 miles Calm Calm - N/A   Overcast
4:55 AM 42.8°F 39.2°F 87% 30.24 in 10.0 miles Calm Calm - N/A   Overcast
5:15 AM 42.8°F 39.2°F 87% 30.24 in 10.0 miles Calm Calm - N/A   Overcast
5:35 AM 42.8°F 39.2°F 87% 30.24 in 10.0 miles Calm Calm - N/A   Overcast
5:55 AM 42.8°F 39.2°F 87% 30.24 in 10.0 miles Calm Calm - N/A   Overcast
6:15 AM 42.8°F 39.2°F 87% 30.24 in 9.0 miles Calm Calm - N/A   Overcast
6:35 AM 42.8°F 39.2°F 87% 30.25 in 10.0 miles Calm Calm - N/A   Overcast
6:55 AM 42.8°F 39.2°F 87% 30.25 in 8.0 miles Calm Calm - N/A   Overcast
7:15 AM 42.8°F 39.2°F 87% 30.25 in 6.0 miles Calm Calm - N/A   Overcast
7:35 AM 42.8°F 39.2°F 87% 30.25 in 7.0 miles Calm Calm - N/A   Overcast
7:55 AM 44.6°F 39.2°F 81% 30.25 in 5.0 miles Calm Calm - N/A   Overcast
8:15 AM 44.6°F 41.0°F 87% 30.26 in 1.5 miles Calm Calm - N/A   Overcast
8:35 AM 44.6°F 41.0°F 87% 30.26 in 2.5 miles SE 4.6 mph - N/A   Overcast
8:55 AM 42.8°F 41.0°F 93% 30.26 in 4.0 miles SSE 5.8 mph - N/A   Overcast
9:15 AM 42.8°F 39.2°F 87% 30.27 in 3.0 miles SE 5.8 mph - N/A   Mostly Cloudy
9:35 AM 42.8°F 39.2°F 87% 30.27 in 9.0 miles SSE 6.9 mph - N/A   Overcast
9:55 AM 44.6°F 39.2°F 81% 30.27 in 9.0 miles SE 6.9 mph - N/A   Overcast
10:15 AM 44.6°F 41.0°F 87% 30.27 in 10.0 miles SE 5.8 mph - N/A   Overcast
10:35 AM 44.6°F 41.0°F 87% 30.26 in 10.0 miles SSE 6.9 mph - N/A   Overcast
10:55 AM 44.6°F 42.8°F 93% 30.26 in 8.0 miles SE 6.9 mph - N/A   Overcast
11:15 AM 44.6°F 42.8°F 93% 30.26 in 3.0 miles SE 4.6 mph - N/A   Overcast
11:35 AM 44.6°F 42.8°F 93% 30.26 in 6.0 miles SE 5.8 mph - N/A   Overcast
11:55 AM 44.6°F 42.8°F 93% 30.27 in 3.0 miles Calm Calm - N/A   Overcast
12:15 PM 46.4°F 42.8°F 87% 30.26 in 9.0 miles Calm Calm - N/A   Overcast
12:35 PM 48.2°F 42.8°F 82% 30.25 in 10.0 miles SW 4.6 mph - N/A   Overcast
12:55 PM 50.0°F 39.2°F 66% 30.24 in 10.0 miles West 9.2 mph - N/A   Overcast
1:15 PM 48.2°F 39.2°F 71% 30.24 in 10.0 miles West 5.8 mph - N/A   Overcast
1:35 PM 51.8°F 39.2°F 62% 30.23 in 10.0 miles West 9.2 mph 17.3 mph N/A   Partly Cloudy
1:55 PM 51.8°F 37.4°F 58% 30.22 in 10.0 miles West 11.5 mph 16.1 mph N/A   Clear
2:15 PM 51.8°F 39.2°F 62% 30.23 in 10.0 miles WSW 10.4 mph 17.3 mph N/A   Clear
2:35 PM 51.8°F 37.4°F 58% 30.23 in 10.0 miles West 13.8 mph 23.0 mph N/A   Partly Cloudy
2:55 PM 51.8°F 37.4°F 58% 30.23 in 10.0 miles West 8.1 mph 20.7 mph N/A   Scattered Clouds
3:15 PM 51.8°F 37.4°F 58% 30.24 in 10.0 miles WSW 8.1 mph - N/A   Partly Cloudy
3:35 PM 51.8°F 37.4°F 58% 30.24 in 10.0 miles WNW 10.4 mph 19.6 mph N/A   Mostly Cloudy
3:55 PM 51.8°F 37.4°F 58% 30.23 in 10.0 miles WNW 5.8 mph - N/A   Overcast
4:15 PM 50.0°F 37.4°F 62% 30.25 in 10.0 miles West 9.2 mph - N/A   Overcast
4:35 PM 48.2°F 37.4°F 66% 30.25 in 10.0 miles West 11.5 mph 21.9 mph N/A   Overcast
4:55 PM 46.4°F 37.4°F 71% 30.25 in 10.0 miles West 8.1 mph - N/A   Mostly Cloudy
5:15 PM 46.4°F 37.4°F 71% 30.26 in 10.0 miles West 6.9 mph - N/A   Mostly Cloudy
5:35 PM 44.6°F 37.4°F 76% 30.26 in 10.0 miles West 5.8 mph - N/A   Mostly Cloudy
5:55 PM 44.6°F 35.6°F 71% 30.26 in 10.0 miles WNW 4.6 mph - N/A   Partly Cloudy
6:15 PM 44.6°F 37.4°F 76% 30.26 in 10.0 miles Calm Calm - N/A   Mostly Cloudy
6:35 PM 44.6°F 37.4°F 76% 30.26 in 10.0 miles Calm Calm - N/A   Overcast
6:55 PM 44.6°F 35.6°F 71% 30.26 in 10.0 miles Calm Calm - N/A   Overcast
7:15 PM 44.6°F 35.6°F 71% 30.27 in 10.0 miles West 3.5 mph - N/A   Overcast
7:35 PM 44.6°F 37.4°F 76% 30.27 in 10.0 miles West 3.5 mph - N/A   Overcast
7:55 PM 44.6°F 37.4°F 76% 30.27 in 10.0 miles SW 3.5 mph - N/A   Overcast
8:15 PM 44.6°F 37.4°F 76% 30.27 in 10.0 miles SW 3.5 mph - N/A   Overcast
8:35 PM 42.8°F 37.4°F 81% 30.27 in 10.0 miles Calm Calm - N/A   Overcast
8:55 PM 42.8°F 37.4°F 81% 30.28 in 10.0 miles WNW 3.5 mph - N/A   Mostly Cloudy
9:15 PM 42.8°F 37.4°F 81% 30.28 in 10.0 miles Calm Calm - N/A   Overcast
9:35 PM 42.8°F 37.4°F 81% 30.28 in 10.0 miles Calm Calm - N/A   Partly Cloudy
9:55 PM 41.0°F 35.6°F 81% 30.28 in 10.0 miles Calm Calm - N/A   Scattered Clouds
10:15 PM 39.2°F 37.4°F 93% 30.29 in 10.0 miles Calm Calm - N/A   Mostly Cloudy
10:35 PM 39.2°F 35.6°F 87% 30.29 in 10.0 miles Calm Calm - N/A   Overcast
10:55 PM 41.0°F 37.4°F 87% 30.29 in 9.0 miles Calm Calm - 0.01 in   Mostly Cloudy
11:15 PM 39.2°F 35.6°F 87% 30.28 in 10.0 miles Calm Calm - N/A   Partly Cloudy
11:35 PM 39.2°F 35.6°F 87% 30.29 in 10.0 miles Calm Calm - N/A   Clear
11:55 PM 37.4°F 33.8°F 87% 30.29 in 10.0 miles Calm Calm - N/A   Clear
Moon Phase
Feb. 16 Feb. 17 Feb. 25 Mar. 04 Mar. 11
Sunrise:07:12 AM (PST) Moon Rise:10:04 AM (PST)2/16
Sunset:05:39 PM (PST) Moon Set:12:08 AM (PST)2/16

Copyright © 2014 The Weather Underground, Inc.